Back to catalog

COSMOS 1691 DEB

AlivePO
NORAD 16271·DEBRIS·🇷🇺 Russia

Launched Oct 9, 1985 from Plesetsk Cosmodrome

Loading…

Next Passes (next 24 hours)

TLE

FreshSource: Space-Track

Epoch: Sep 13, 2026, 20:34 UTC

1 16271U 85094Q   26256.85733425  .00000005  00000-0 -31208-4 0  9995
2 16271  82.6069 217.9330 0004675 299.9021  87.7414 12.63031364886708

Track COSMOS 1691 DEB in real time with AllMySat

Download on the App Store